TimeEST,TemperatureF,Dew PointF,Humidity,Sea Level PressureIn,VisibilityMPH,Wind Direction,Wind SpeedMPH,Gust SpeedMPH,PrecipitationIn,Events,Conditions,WindDirDegrees,DateUTC
12:53 AM,63.0,48.9,60,30.13,10.0,NNW,16.1,-,N/A,,Clear,330,2013-03-07 05:53:00
1:53 AM,63.0,48.9,60,30.12,10.0,NNW,18.4,25.3,N/A,,Scattered Clouds,340,2013-03-07 06:53:00
2:53 AM,62.1,50.0,65,30.11,10.0,NNW,12.7,23.0,N/A,,Mostly Cloudy,330,2013-03-07 07:53:00
3:53 AM,62.1,48.9,62,30.10,10.0,NNW,16.1,-,N/A,,Mostly Cloudy,340,2013-03-07 08:53:00
4:53 AM,62.1,48.9,62,30.11,10.0,North,15.0,21.9,N/A,,Scattered Clouds,360,2013-03-07 09:53:00
5:53 AM,61.0,51.1,70,30.13,10.0,North,15.0,-,N/A,,Overcast,10,2013-03-07 10:53:00
5:55 AM,60.8,51.8,72,30.13,10.0,North,11.5,-,N/A,,Mostly Cloudy,10,2013-03-07 10:55:00
6:53 AM,60.1,48.0,64,30.16,10.0,NNE,11.5,18.4,N/A,,Mostly Cloudy,30,2013-03-07 11:53:00
7:53 AM,60.1,48.0,64,30.17,10.0,NNE,13.8,-,N/A,,Mostly Cloudy,20,2013-03-07 12:53:00
8:53 AM,61.0,45.0,56,30.19,10.0,NNE,10.4,18.4,N/A,,Scattered Clouds,30,2013-03-07 13:53:00
9:53 AM,62.1,44.1,52,30.21,10.0,NNE,11.5,18.4,N/A,,Partly Cloudy,30,2013-03-07 14:53:00
10:53 AM,63.0,45.0,52,30.22,10.0,NNE,10.4,-,N/A,,Clear,20,2013-03-07 15:53:00
11:53 AM,64.0,44.1,48,30.22,10.0,North,11.5,-,N/A,,Clear,350,2013-03-07 16:53:00
12:53 PM,63.0,44.1,50,30.19,10.0,NNE,11.5,-,N/A,,Clear,20,2013-03-07 17:53:00
1:53 PM,64.0,45.0,50,30.18,10.0,North,6.9,-,N/A,,Clear,360,2013-03-07 18:53:00
2:53 PM,64.0,44.1,48,30.18,10.0,NW,12.7,18.4,N/A,,Clear,320,2013-03-07 19:53:00
3:53 PM,64.0,45.0,50,30.17,10.0,North,9.2,-,N/A,,Clear,350,2013-03-07 20:53:00
4:53 PM,63.0,46.0,54,30.17,10.0,North,13.8,-,N/A,,Clear,350,2013-03-07 21:53:00
5:53 PM,61.0,46.9,60,30.17,10.0,NNW,11.5,-,N/A,,Clear,340,2013-03-07 22:53:00
6:53 PM,60.1,46.9,62,30.17,10.0,North,10.4,-,N/A,,Clear,350,2013-03-07 23:53:00
7:53 PM,60.1,46.9,62,30.19,10.0,NNW,10.4,-,N/A,,Clear,340,2013-03-08 00:53:00
8:53 PM,60.1,48.9,67,30.19,10.0,North,10.4,-,N/A,,Clear,360,2013-03-08 01:53:00
9:53 PM,60.1,48.9,67,30.19,10.0,North,9.2,-,N/A,,Clear,350,2013-03-08 02:53:00
10:53 PM,61.0,50.0,67,30.19,10.0,North,10.4,-,N/A,,Clear,10,2013-03-08 03:53:00
11:53 PM,61.0,50.0,67,30.18,10.0,NNE,8.1,-,N/A,,Clear,20,2013-03-08 04:53:00